CZ-3C DEB, 40863

Orbit data source: Space-Track

CZ-3C DEB, 40863 is space debris in HEO originally from a launch on Fri, 24 Feb 2012 UTC launched from the Xichang Space Center, China (XSC). Debris objects in space refer to the collection of defunct objects orbiting the Earth. Examples of debris include non-operational satellites, rocket bodies, and fragments generated from explosions, collisions, or faulty payload assembly.

Loading next visibility...
Identifier
40863, 2012-008AD
Orbit
HEO
Country
Flag of CNCN / PRC
Related business
Manufacturer
CALT
Mission
Spacecraft
Bus & Motor
Unknown
Mass
Unknown
Launch date (UTC)
2012-02-24 (14 years ago)
Launch vehicle
Unknown
Launch site
Xichang Space Center, China (XSC)
Object type
Payload
Rocket body
Debris
Shape & HBR
Unknown
Radar Cross Section
Medium (>0.1 m² and <1 m²)

Expand to show TLE details & history
Last TLE update: 2 days ago

TLE from 2 days ago
0 CZ-3C DEB
1 40863U 12008AD  25240.26600685 -.00000131  00000-0  00000-0 0  9994
2 40863  20.9090 282.1024 7020842  81.0477 346.0833  2.20833358 85769
Epoch: 2025-08-28T06:23Z
TLE epoch observation values (Epoch: 2025-08-28T06:23:02.991Z)
Latitude
-0.00005°
Longitude
-150.3575°
Altitude
4,972.744 km
Speed
7.364 km/s
True Right ascension
18h 48m 32s
True Declination
0° 00' 00"
Sunlit
Object was in daylight at epoch
Visualization orbit readout
Latitude
Unknown
Longitude
Unknown
Altitude
Unknown
Speed
Unknown
Apparent Right ascension
Unknown
Apparent Declination
Unknown
Sunlit
N/A
Visualization observer readout
Local Sidereal Time
22:15:01
Azimuth
Unknown
Elevation
Unknown
Doppler factor
Unknown
Orbital elements
Apogee altitude
36,026.085 km
Perigee altitude
1,043.874 km
Semi-major axis
24,913.116 km
Eccentricity
0.70208
Inclination
20.909°
RAAN
282.1024°
Arg. of periapsis
81.0477°
True anomaly
278.71525°
Mean anomaly
346.0833°
Eccentric anomaly
320.49154°
Mean motion
0.55195 °/min
Orbital period
652.23 mins
BSTAR
0
Loading maneuver chart data...
Computing Atmospheric mass density...
Loading historical data...
Loading historical data...
Loading historical data...
Loading historical data...
Loading historical data...
Loading historical data...
Loading historical data...

Documentation

Showing up to 5 results
|